Theta_e
308 309 310 311 310 311 311 306 305 309 311 313 313 311 309 309 307 305 307 305 303 303 299 298 298 297 297 296 295 295 293 292 291 290 290 289 288 288 287 287 287 286 286 286 285 285 285 284 284 284 284 284 283 284 285 285 284 284 283 283 283 283 283 283 283 282 282 281 280 280 279 279 279 279 278 278 278 278 278 277 277 277 276 275 275 275
306 308 309 307 307 310 308 304 307 311 311 311 309 308 310 307 305 305 306 307 307 306 300 297 297 297 296 296 296 295 294 293 291 290 290 289 289 288 288 288 287 287 286 286 285 285 285 284 284 284 284 284 283 283 284 284 284 284 284 284 283 283 283 282 282 281 281 280 280 279 279 278 278 278 278 278 278 277 277 277 277 276 275 274 274 275
307 308 306 304 306 308 304 302 308 310 307 307 306 309 310 306 307 311 310 307 306 305 300 297 297 297 296 296 295 295 295 293 292 291 290 290 289 288 288 288 287 287 286 286 285 285 285 284 284 284 283 284 284 284 283 284 284 284 284 283 283 283 282 282 282 281 281 280 279 279 278 278 278 278 277 277 277 277 277 277 276 275 274 273 273 274
307 306 303 305 307 305 302 302 308 310 305 303 304 307 307 304 307 311 310 308 306 303 299 297 296 296 296 296 295 294 294 294 293 293 291 290 290 289 288 288 287 287 287 286 285 285 285 285 284 284 283 283 283 284 284 284 284 284 283 283 283 283 282 282 282 281 280 280 279 278 278 277 277 277 277 276 277 277 276 276 275 274 274 273 273 273
306 303 303 308 308 304 303 302 306 311 310 306 304 304 303 304 305 305 307 309 306 301 299 300 301 299 296 296 296 294 294 294 293 293 292 291 291 290 289 288 288 287 287 287 286 285 285 285 285 284 284 283 282 283 284 284 284 284 283 283 283 282 282 281 281 280 280 279 278 277 277 277 276 276 276 276 276 276 276 275 274 274 273 273 272 273
304 302 304 308 309 306 304 303 304 307 311 309 305 302 302 303 304 305 308 310 309 304 303 306 307 304 299 298 297 295 294 294 293 293 293 292 291 291 290 289 289 289 287 287 286 285 285 285 285 285 284 283 282 283 284 284 284 283 283 282 282 281 280 280 280 279 278 278 277 277 276 276 275 275 275 275 275 275 275 274 274 274 273 272 272 272
304 302 304 305 307 307 305 304 303 304 308 307 303 302 302 302 304 307 308 309 312 308 304 305 305 302 300 298 298 296 295 296 294 294 293 292 291 290 290 289 289 289 288 287 286 285 286 286 285 285 284 283 283 284 284 284 283 282 282 281 281 280 279 279 278 278 278 278 277 276 275 275 275 275 274 274 275 275 275 274 274 273 273 272 272 272
304 304 304 303 305 307 304 303 303 303 305 304 302 303 303 304 305 307 307 308 310 307 305 305 301 299 302 302 299 297 297 296 295 294 294 293 291 291 290 289 289 288 288 288 287 286 286 286 286 285 284 284 284 284 284 283 282 281 280 280 279 278 278 278 277 277 277 277 276 276 275 274 274 274 273 273 274 274 274 274 273 273 272 271 271 271
304 304 303 302 303 304 303 301 302 303 304 306 305 303 303 304 304 305 307 308 307 306 307 306 301 300 305 304 299 298 298 297 297 296 294 294 293 292 292 290 289 288 288 287 287 286 286 286 286 286 285 284 285 284 283 282 281 280 279 279 278 278 277 277 277 277 276 276 276 275 274 274 273 273 273 273 273 273 273 273 272 272 272 271 271 271
303 302 302 301 301 301 302 301 302 303 304 307 304 302 305 307 306 307 307 307 307 307 306 303 301 301 303 303 299 298 299 298 299 297 295 294 293 293 292 292 291 289 288 287 286 286 286 287 287 286 285 284 284 284 283 282 281 279 279 278 278 277 277 276 276 276 275 275 275 274 274 273 273 272 272 272 272 272 273 272 272 272 271 270 270 270
305 306 304 302 300 300 301 301 302 303 303 303 303 304 308 311 310 308 307 307 306 307 305 300 300 301 301 304 301 300 303 303 302 300 297 295 294 293 292 292 292 291 290 288 286 286 287 287 287 286 285 284 284 284 282 281 280 279 279 278 278 277 277 276 276 275 275 274 274 274 273 273 272 271 271 271 271 272 272 272 272 271 270 270 270 270
307 309 305 303 301 300 302 302 303 305 303 300 300 303 305 306 307 309 312 309 303 306 306 300 300 301 301 305 303 301 303 304 303 303 302 298 295 293 292 292 292 291 291 290 288 287 286 286 286 285 284 284 283 283 282 281 280 279 279 278 277 277 276 276 276 275 275 274 274 273 273 272 272 271 271 271 271 271 271 271 271 271 270 270 269 269
307 305 302 304 303 300 302 304 304 305 303 299 299 304 306 306 305 307 311 307 301 305 306 299 299 300 300 302 304 303 302 300 300 300 301 300 297 294 293 292 292 291 290 290 289 288 286 285 285 284 284 283 283 282 282 281 280 279 279 278 278 277 276 276 275 275 275 274 274 273 273 272 271 271 270 270 270 270 271 271 271 270 270 269 269 269
309 305 303 305 303 300 301 302 302 301 301 301 299 302 308 307 304 303 304 302 300 303 303 298 299 301 300 301 305 307 304 299 297 296 296 297 296 295 294 292 292 291 290 290 290 288 286 286 285 284 284 283 283 283 282 281 281 280 279 278 278 277 276 276 275 275 274 274 273 273 272 272 271 271 270 270 270 270 270 270 270 270 270 269 268 268
306 301 301 303 300 301 302 300 299 299 301 302 300 301 306 306 303 302 302 302 303 303 301 298 300 303 303 303 305 304 299 296 295 295 294 295 294 294 293 293 292 291 291 290 290 288 287 286 286 285 284 284 283 283 282 281 281 280 279 278 278 277 276 276 275 275 274 274 273 273 272 272 271 271 270 270 269 269 270 270 270 270 269 269 268 268
303 299 300 302 299 300 301 300 301 299 298 300 299 300 302 302 302 303 303 302 302 302 302 302 303 304 302 302 301 297 296 296 296 295 294 294 294 293 293 293 292 292 291 290 290 289 287 287 287 286 285 285 284 284 283 282 281 281 279 279 278 277 277 276 275 275 274 274 273 273 272 271 271 271 270 269 269 269 269 269 269 269 269 269 268 267
303 304 304 302 301 300 299 300 301 298 295 297 299 297 297 300 302 303 303 302 298 298 301 300 298 300 298 300 300 295 296 297 295 295 295 294 293 293 292 292 292 292 291 291 291 289 288 288 287 287 286 286 285 285 284 283 282 281 280 279 278 277 276 276 275 275 274 274 273 272 272 271 271 270 270 269 269 269 268 268 268 268 268 268 268 267
302 307 306 303 304 302 300 301 302 300 297 297 298 297 297 300 302 302 301 302 300 297 300 299 297 298 296 298 302 301 301 300 296 294 293 292 292 292 292 292 291 291 291 291 290 289 288 288 288 288 288 287 286 286 285 284 283 282 281 280 278 277 276 276 276 275 274 274 273 273 272 271 271 270 270 269 269 268 268 268 268 268 268 268 267 267
301 307 307 303 302 302 302 302 302 302 299 298 299 299 298 299 301 301 298 300 299 297 299 301 298 298 298 302 305 304 304 305 302 297 293 293 293 292 292 291 291 291 291 290 290 289 288 288 288 288 288 288 287 286 286 285 284 283 281 280 279 278 277 277 276 274 274 274 273 273 272 271 271 270 270 269 269 268 268 268 268 268 267 267 267 267
300 305 305 302 300 300 302 301 301 301 298 299 301 299 299 301 302 302 298 298 299 298 299 300 299 300 303 307 304 300 303 304 302 300 298 296 295 293 293 292 291 291 291 290 290 290 289 288 289 289 288 288 287 287 286 285 284 282 281 280 278 277 277 276 275 274 274 274 273 273 272 271 270 270 269 269 268 268 268 267 267 267 267 267 267 266
302 302 303 305 302 301 302 299 299 300 298 301 301 298 299 300 301 299 297 299 300 300 300 299 299 300 301 301 299 298 301 301 299 300 299 299 297 294 293 293 292 292 291 291 290 290 289 288 288 288 288 288 288 287 286 284 283 282 281 279 278 277 276 276 275 274 274 273 273 273 272 271 270 270 269 269 268 268 267 267 267 267 267 266 266 266
302 300 301 305 303 303 303 297 296 299 299 301 301 300 300 301 299 296 296 300 300 300 301 299 297 297 296 298 298 298 300 300 300 300 300 300 298 295 294 293 292 292 292 291 291 290 288 287 288 287 287 287 287 287 286 284 283 282 280 279 278 277 276 275 275 274 274 273 273 272 272 271 270 269 269 269 268 268 267 267 267 267 266 266 266 266
299 299 300 303 302 300 299 296 297 300 300 299 298 298 299 302 301 297 299 302 299 298 298 297 296 296 296 300 300 299 301 300 300 299 299 299 296 294 293 292 291 291 291 292 291 289 288 288 288 287 287 287 286 286 286 285 283 281 280 279 277 276 276 275 275 274 274 273 273 272 272 271 270 269 269 268 268 268 267 267 267 266 266 266 266 266
299 299 300 304 304 301 298 297 298 298 298 298 299 298 297 300 302 302 302 301 298 298 296 295 296 295 297 303 302 299 299 298 298 297 297 296 294 293 292 291 291 291 291 291 291 289 288 288 288 287 287 287 287 287 286 284 283 281 280 278 277 276 276 275 275 274 273 273 272 272 271 270 270 269 269 268 268 267 267 267 267 266 266 266 265 265
299 301 299 301 303 303 303 303 301 299 299 299 300 299 297 299 300 299 298 296 296 298 295 293 295 294 297 304 303 299 299 298 297 296 294 294 293 292 292 292 292 292 291 291 291 290 289 288 287 287 287 287 286 286 285 284 282 281 279 278 277 276 276 275 274 274 273 273 272 271 271 270 269 269 268 268 267 267 267 267 266 266 266 266 265 265
301 302 299 299 300 299 301 302 301 303 301 299 300 299 297 298 298 298 298 297 297 296 294 295 297 294 295 299 298 297 297 296 296 294 293 293 292 292 292 292 292 291 291 291 290 290 289 287 286 286 287 286 285 285 284 283 282 280 279 278 277 276 275 274 274 274 273 272 271 271 270 270 269 269 268 268 267 267 267 266 266 266 266 265 265 265
301 302 298 299 300 298 298 298 297 298 297 295 297 297 297 297 297 298 300 299 297 296 295 296 296 294 295 295 294 294 294 294 294 293 293 292 292 292 292 291 291 290 290 290 289 289 288 287 286 285 285 286 285 285 284 282 281 280 279 278 277 276 275 274 274 273 272 272 271 271 270 269 269 269 268 268 267 267 266 266 266 266 265 265 265 264
300 302 299 298 299 298 297 297 296 295 294 293 294 295 297 298 297 296 298 298 297 296 295 295 295 294 294 294 293 294 293 293 293 293 293 293 292 292 291 291 291 290 290 289 289 288 288 288 286 284 285 286 286 285 284 283 282 281 279 278 276 275 275 274 274 273 272 271 271 270 270 269 269 268 268 267 267 267 266 266 266 265 265 264 264 264
298 299 299 298 299 299 297 296 295 294 293 293 294 293 294 297 297 297 296 296 296 296 295 295 295 294 294 294 294 294 294 294 293 293 293 292 291 291 291 290 290 290 289 289 288 288 287 287 286 284 284 285 285 285 284 284 283 281 279 278 276 275 275 274 273 272 271 271 270 270 270 269 268 268 267 267 267 266 266 265 265 265 264 264 264 263
296 299 300 297 299 299 295 295 295 294 294 294 295 295 294 295 297 297 296 295 294 295 295 294 295 294 294 294 294 294 294 294 293 292 291 291 291 291 290 290 289 289 289 288 288 287 287 286 285 284 284 285 284 284 284 283 282 281 278 277 276 275 274 274 273 272 271 271 270 270 269 269 268 268 267 267 266 266 265 265 265 264 264 264 263 263
293 298 300 297 298 298 296 297 297 296 296 296 295 294 294 293 294 295 294 294 294 295 294 294 294 294 294 294 294 293 293 292 291 291 291 290 290 290 290 289 289 289 289 288 287 286 286 285 285 284 285 285 284 284 283 283 282 280 278 277 276 275 274 273 272 271 271 271 270 270 269 268 268 267 267 266 266 266 265 265 264 264 263 263 263 262
294 298 300 297 297 297 295 296 296 294 295 295 294 295 294 293 294 295 295 295 295 295 295 295 294 294 293 293 293 292 292 291 291 290 290 290 290 290 289 289 289 289 288 287 286 285 285 285 285 285 285 285 285 284 283 282 281 279 277 276 275 274 273 272 272 271 271 270 270 269 268 268 267 267 266 266 266 265 265 264 264 263 263 263 262 262
297 298 298 296 297 298 296 294 294 294 295 296 298 300 297 295 295 296 295 295 295 295 296 296 295 294 293 292 292 291 291 290 290 290 289 289 289 289 289 289 288 287 286 286 285 285 285 285 285 285 284 284 284 283 283 282 280 279 277 276 274 273 272 272 271 271 270 270 269 269 268 267 267 266 266 266 265 265 264 264 263 263 263 262 262 262
296 297 297 296 297 301 300 295 294 295 295 296 299 301 297 294 294 294 294 294 294 294 295 295 294 292 292 292 291 291 290 290 290 289 289 289 289 289 289 288 287 286 286 286 286 285 285 285 284 283 283 282 282 282 281 281 279 278 276 275 273 272 272 271 271 270 270 269 269 268 267 267 266 266 265 265 265 264 264 263 263 263 262 262 261 261
298 297 298 297 297 299 299 296 294 295 297 297 297 296 294 293 293 293 293 294 294 293 293 293 292 292 291 291 290 290 290 289 289 289 289 290 289 289 288 287 286 286 286 285 285 284 283 283 282 281 281 280 280 280 280 279 278 276 274 273 272 272 271 271 270 270 269 269 268 267 267 266 266 265 265 265 264 264 263 263 263 262 262 261 261 260
300 298 297 297 297 297 298 297 294 294 295 295 294 295 294 293 293 293 293 294 294 294 293 291 291 291 290 290 290 289 289 288 288 289 289 289 288 287 286 286 286 285 285 284 283 282 281 280 279 279 279 279 279 279 278 277 275 274 273 272 272 271 271 271 270 269 268 268 267 267 266 266 265 265 265 264 264 263 263 263 262 262 261 261 260 260
299 298 296 296 296 296 297 298 296 293 294 296 296 295 294 292 292 293 293 293 293 292 291 290 290 290 290 290 289 288 288 288 289 289 288 287 286 286 286 285 285 284 283 282 280 279 279 278 278 278 278 277 277 276 276 274 273 273 272 272 272 271 270 270 269 268 268 267 267 266 266 265 265 265 264 264 263 263 263 262 262 261 261 260 260 259
296 296 295 294 295 296 295 296 296 293 294 298 298 294 291 293 294 292 291 292 292 293 292 291 291 291 290 289 288 288 288 289 289 289 288 286 286 285 285 284 283 282 281 279 278 277 277 277 277 277 276 276 275 274 274 273 273 272 272 271 271 270 270 269 268 268 267 267 266 266 265 265 265 264 264 263 263 263 262 262 261 261 260 260 259 259
293 294 294 294 296 296 294 294 295 294 294 296 295 292 292 293 293 291 291 292 294 295 294 293 291 290 289 288 288 288 288 288 288 288 287 285 285 284 283 283 281 280 279 278 277 276 276 276 276 276 275 275 274 274 273 272 272 271 271 271 270 269 269 268 268 267 267 266 266 265 265 264 264 264 263 263 263 262 262 261 261 260 260 259 259 258
292 293 294 294 295 295 293 294 295 294 294 296 295 293 292 291 290 291 292 293 293 293 292 291 290 288 288 288 287 288 288 288 287 287 285 284 283 282 282 280 279 278 277 277 276 276 275 275 275 275 274 274 274 273 272 272 272 271 270 270 269 269 268 268 267 267 266 266 265 265 264 264 264 263 263 262 262 261 261 261 260 260 259 259 259 258
294 294 293 293 294 293 293 295 295 294 297 298 295 293 292 290 290 291 293 292 291 291 290 288 288 287 287 287 287 287 287 287 286 284 283 282 281 280 279 278 278 277 277 276 276 275 275 275 274 274 273 272 272 272 272 272 271 270 269 269 268 268 268 267 267 266 266 265 265 264 264 264 263 263 262 262 261 261 260 260 260 259 259 259 258 258
296 296 294 294 294 294 294 295 294 295 297 296 292 291 290 290 292 293 293 292 291 289 288 288 287 287 287 286 286 286 285 285 283 282 281 280 279 278 278 277 277 277 276 276 275 274 274 273 272 272 271 271 271 271 271 271 270 269 268 268 268 267 267 267 266 266 265 265 264 264 264 263 263 262 262 261 261 260 260 260 260 259 259 258 258 257
298 299 299 299 297 294 294 294 295 297 297 293 291 291 290 291 293 293 291 291 290 289 288 287 287 287 286 285 284 284 283 282 281 280 279 278 278 277 277 277 276 276 276 275 274 273 272 271 271 270 270 270 270 270 269 269 268 268 268 267 267 266 266 266 265 265 265 264 264 263 263 262 262 262 261 261 260 260 260 259 259 259 258 258 257 257
297 297 301 300 297 295 295 297 299 300 297 292 291 292 292 292 293 291 290 290 289 288 287 287 286 285 284 283 283 282 281 280 279 279 278 278 277 277 277 276 275 275 275 274 272 271 270 270 270 269 269 269 269 268 268 268 267 267 267 266 266 266 266 265 265 264 264 263 263 263 262 262 262 261 261 260 260 259 259 259 259 258 258 257 257 256
298 298 300 298 296 296 296 297 297 296 295 293 292 293 292 292 292 290 289 289 288 287 286 286 285 284 283 282 281 281 280 279 278 278 277 277 277 276 276 275 274 274 273 272 270 270 270 269 269 269 269 268 268 267 267 267 266 266 266 266 265 265 265 265 264 264 263 263 262 262 262 261 261 261 260 260 259 259 259 258 258 258 257 257 256 256
296 295 296 295 296 296 294 293 294 294 294 294 293 292 292 291 290 289 288 288 287 286 286 284 283 283 282 281 280 280 279 278 278 277 277 276 276 275 274 274 273 273 271 270 269 269 269 269 269 268 268 268 267 267 266 266 265 265 265 265 265 264 264 264 263 263 263 262 262 261 261 261 260 260 260 259 259 258 258 258 257 257 257 256 256 255
295 292 292 294 295 294 293 293 294 293 293 293 291 292 291 290 289 288 288 287 286 285 285 283 282 282 281 280 280 279 278 278 277 277 276 275 275 274 273 273 272 271 270 269 269 268 268 268 268 268 267 267 266 266 265 265 265 265 264 264 264 264 263 263 263 262 262 262 261 261 260 260 260 259 259 258 258 258 258 257 257 257 257 256 256 256
296 292 293 293 293 292 292 293 292 292 293 292 291 291 290 289 288 288 287 286 285 284 283 282 281 281 280 280 279 278 277 277 277 276 275 274 273 273 272 272 271 269 268 268 268 268 268 267 267 266 266 265 265 265 264 264 264 264 264 263 263 263 263 262 262 262 261 261 261 260 260 260 259 259 258 258 258 257 257 257 257 257 257 257 256 256
295 293 293 294 293 293 293 293 292 292 292 293 293 292 290 288 289 287 286 286 285 283 282 281 281 281 280 279 279 277 277 276 275 274 273 272 272 272 271 270 269 268 267 267 267 267 267 266 266 265 265 264 264 264 263 263 263 263 263 262 262 262 262 262 261 261 261 260 260 260 259 259 258 258 258 258 257 257 257 257 257 257 257 257 257 257
293 293 293 293 294 295 294 294 293 292 292 292 292 290 289 288 288 287 286 285 284 282 281 281 280 280 280 279 278 276 276 275 274 273 272 271 271 271 269 268 267 267 267 267 266 266 266 265 265 264 264 263 263 263 262 262 262 262 262 261 261 261 261 261 261 260 260 260 259 259 259 258 258 258 257 257 257 257 257 257 257 257 258 258 258 258
294 294 294 295 296 296 294 293 293 292 291 291 291 290 289 288 288 287 286 285 283 281 280 280 280 279 279 278 277 275 274 273 273 272 271 271 270 269 268 267 267 267 266 266 266 265 265 264 264 263 263 263 262 262 262 262 261 261 261 261 260 260 260 260 260 260 259 259 259 258 258 258 257 257 257 257 257 257 257 257 257 257 258 258 259 259
Wind_Speed
4 7 6 5 5 5 5 5 4 4 2 2 4 3 4 3 3 3 1 4 10 10 5 6 9 6 5 4 5 5 6 7 7 6 5 4 4 4 4 4 4 4 5 8 9 8 8 7 7 6 7 8 8 7 7 8 7 6 5 4 4 6 7 8 9 10 11 11 12 13 11 10 8 4 4 6 9 11 11 11 11 11 12 11 8 6
5 8 6 8 6 4 6 7 4 5 5 4 5 5 5 4 5 5 0 2 4 8 4 5 8 5 3 4 3 4 5 5 6 6 5 5 5 5 5 6 5 4 6 9 9 8 8 8 8 7 6 6 7 6 5 5 5 4 3 2 2 3 5 7 9 10 10 10 11 12 12 11 10 7 5 7 8 10 10 10 11 12 12 11 7 6
7 7 8 11 6 5 7 9 9 9 8 6 5 5 4 3 4 6 3 5 5 7 5 4 7 4 2 3 3 3 4 3 4 6 6 7 6 5 6 6 6 5 6 7 9 10 10 10 10 9 9 8 7 6 6 5 4 3 3 1 1 2 4 6 8 9 10 10 10 11 12 11 11 9 7 7 8 10 10 10 11 12 11 9 7 7
4 4 9 8 6 9 9 11 10 7 6 6 5 5 2 3 2 2 5 7 6 5 7 6 5 3 1 2 2 2 3 3 3 4 5 6 7 7 8 7 7 8 7 7 9 12 13 12 12 12 11 11 10 8 7 6 5 3 2 1 1 2 4 5 7 8 9 10 10 11 12 12 10 10 9 7 7 10 11 11 12 12 9 7 6 7
5 6 8 5 8 9 7 10 11 7 5 3 4 5 2 4 0 3 4 6 5 5 6 8 4 1 3 3 3 3 3 4 4 4 4 5 6 6 7 7 8 8 8 8 8 12 15 15 15 15 14 13 13 12 9 7 6 4 4 3 2 3 3 5 6 8 9 10 10 11 12 12 10 10 9 7 8 9 11 11 10 10 9 7 5 6
6 7 6 7 8 8 7 7 7 5 4 4 1 3 2 5 4 3 3 4 4 2 3 5 3 3 4 5 5 4 4 5 5 5 6 6 6 6 6 7 7 7 8 10 10 13 17 18 18 17 17 16 16 15 12 9 8 6 5 5 4 4 4 4 5 7 8 9 10 11 12 12 10 10 9 7 9 10 10 10 10 10 10 8 5 5
5 7 7 7 5 7 7 5 4 4 5 3 3 3 3 3 5 4 3 4 3 1 2 4 3 3 3 4 6 6 6 6 6 7 8 8 7 7 7 7 7 7 8 9 12 15 18 19 20 20 20 20 19 17 14 12 10 8 7 6 5 5 5 5 6 6 7 9 9 10 11 11 10 11 11 9 10 11 10 10 10 11 10 9 6 6
3 7 9 8 6 7 6 4 4 4 6 2 6 6 7 6 5 3 4 3 2 1 3 4 3 2 3 4 5 6 6 6 7 8 9 8 8 9 9 8 9 9 9 8 9 13 18 21 22 24 24 23 21 18 16 15 12 9 8 7 6 6 6 6 7 7 8 8 9 10 11 11 11 12 12 11 10 10 10 11 11 11 11 10 7 6
1 5 7 7 7 5 3 5 6 2 3 6 8 7 7 6 5 3 4 2 1 1 3 6 3 1 4 4 2 4 5 7 9 11 11 10 10 10 9 9 10 10 11 11 10 14 19 23 25 26 26 25 22 19 17 16 13 11 9 8 7 8 8 8 8 9 9 9 9 10 11 12 12 13 13 12 11 11 12 12 12 11 11 9 7 6
2 1 1 4 5 3 4 7 6 1 1 8 8 6 3 1 1 2 4 2 2 3 2 6 3 2 4 4 1 2 4 8 10 10 10 10 11 10 10 10 10 9 9 12 15 19 23 26 28 27 26 25 24 21 19 16 14 13 12 10 9 9 9 10 10 11 10 9 9 10 11 12 13 13 13 13 13 13 13 13 12 11 10 9 8 7
2 2 1 3 2 3 4 5 3 2 3 6 7 6 4 5 4 3 3 4 4 2 4 5 1 3 2 4 4 4 5 7 8 6 7 9 10 11 10 10 10 9 8 10 13 19 24 25 25 25 25 26 25 23 21 19 17 15 14 12 12 11 11 12 12 13 12 10 10 11 11 12 13 13 12 13 13 13 12 13 13 12 11 10 8 8
4 5 3 1 2 3 2 3 5 5 5 6 5 5 4 4 5 5 5 4 4 3 6 5 1 4 2 5 5 7 8 6 7 7 8 9 11 11 10 10 10 10 9 9 10 15 20 21 21 23 26 27 26 25 24 22 20 17 16 15 14 14 13 13 14 15 13 12 12 11 12 13 14 13 12 13 14 14 13 13 14 13 12 11 9 8
4 2 3 3 3 5 5 3 6 7 7 7 5 5 5 3 5 4 4 3 0 5 6 2 4 1 5 7 6 9 11 10 9 9 9 9 11 11 10 10 9 9 9 10 9 11 15 18 21 24 26 27 27 27 27 25 22 19 18 17 17 17 15 15 16 16 15 14 13 12 13 14 14 13 13 14 15 14 14 14 14 14 13 12 10 10
3 4 5 5 4 3 5 4 3 4 5 6 4 4 4 2 4 2 3 3 2 6 6 4 3 2 5 5 7 9 10 10 9 8 8 8 9 9 9 8 8 9 9 10 10 10 13 19 23 25 27 27 28 29 28 26 24 21 20 20 21 20 17 16 17 16 16 15 14 13 14 15 15 15 14 14 15 15 14 14 14 15 14 12 11 11
2 3 4 2 2 3 4 3 3 2 2 4 1 4 3 3 3 1 2 2 3 5 7 5 1 4 4 4 6 6 6 5 6 7 6 7 8 7 7 7 7 9 9 9 10 11 16 23 25 26 27 28 29 29 27 26 25 24 24 23 23 23 20 19 18 17 17 16 14 14 15 16 16 16 15 15 16 16 15 14 14 15 15 14 13 12
3 2 4 1 0 2 1 2 3 3 1 4 1 5 1 2 4 2 3 5 3 4 5 3 1 5 4 4 4 3 5 4 5 7 6 8 9 6 7 9 9 9 9 9 9 11 18 25 26 26 27 28 29 28 27 27 27 26 27 26 26 25 23 21 20 19 17 16 14 15 16 17 18 18 17 17 17 18 17 15 14 15 15 15 14 12
2 3 5 2 3 1 4 2 1 4 1 2 3 1 3 3 6 2 3 3 1 2 4 3 3 4 3 4 4 5 6 7 6 8 8 10 9 7 9 10 10 10 10 10 10 12 18 23 25 27 28 29 29 29 29 29 29 29 29 28 28 27 25 23 21 20 18 16 14 16 17 19 20 20 19 19 18 18 17 17 16 15 15 15 14 13
2 3 5 2 2 5 4 2 3 1 4 3 1 2 2 1 4 3 1 4 3 2 5 3 5 5 3 4 5 5 6 9 9 10 10 10 9 9 12 12 12 12 11 12 12 14 18 22 24 27 29 31 32 32 32 32 32 32 31 31 30 30 28 26 24 22 20 17 16 17 18 20 21 21 20 20 19 17 17 17 17 16 15 15 14 14
2 1 6 3 3 4 2 5 4 5 2 4 3 2 3 2 1 1 0 2 2 3 5 5 5 5 3 4 5 5 7 10 10 9 9 11 11 11 13 13 13 13 11 11 11 12 16 21 25 28 29 31 32 33 34 34 33 33 33 33 33 32 30 27 25 23 22 19 18 18 19 20 21 21 21 20 19 18 18 18 18 17 17 15 15 15
0 2 4 3 1 1 3 3 1 3 3 2 2 2 2 2 3 1 1 2 1 3 4 5 5 4 6 6 5 8 9 9 10 9 9 12 13 12 12 12 12 12 11 11 11 10 14 21 26 28 29 31 33 34 35 34 33 34 34 34 34 33 30 27 26 25 24 21 19 18 19 20 21 21 21 20 19 18 19 19 18 17 17 16 16 16
2 2 3 5 4 2 1 2 3 4 2 1 2 2 2 1 1 1 2 2 3 2 3 4 4 7 7 5 5 10 10 10 11 10 10 11 11 11 12 11 11 11 11 11 10 10 14 20 25 27 29 31 32 33 33 33 34 35 34 34 34 34 31 29 28 27 26 23 20 19 20 21 21 21 21 20 20 20 20 19 18 18 18 17 17 16
2 1 2 3 4 1 3 4 3 5 5 4 3 2 2 1 2 1 3 3 1 3 4 3 5 11 8 3 6 9 9 10 10 9 9 10 11 12 11 12 12 10 10 11 10 10 13 19 23 26 28 29 29 30 31 33 34 34 35 35 35 34 33 31 30 29 26 23 20 20 21 21 22 22 22 22 21 21 21 20 19 19 18 18 17 16
1 2 0 3 5 4 4 4 0 3 4 4 2 2 3 4 5 4 3 4 1 1 3 2 4 11 7 4 6 8 7 8 8 8 9 10 11 11 11 11 11 10 11 11 10 11 15 19 23 25 26 27 29 30 31 32 33 34 36 36 35 35 34 33 32 30 26 22 20 21 21 22 22 22 22 23 22 22 21 21 20 20 19 18 17 17
0 2 1 4 4 3 4 4 3 3 4 2 2 2 4 3 4 6 5 3 1 3 3 1 4 10 7 1 3 5 5 6 6 7 9 10 10 10 11 12 11 11 12 11 10 11 15 19 21 21 23 26 28 30 30 32 33 35 35 35 36 36 36 35 33 29 25 22 21 21 22 22 23 22 23 23 23 22 22 21 21 20 19 18 18 18
1 1 1 3 5 6 5 5 5 4 1 1 3 3 5 4 6 4 2 3 1 6 6 3 6 10 6 3 4 5 6 7 9 9 9 9 10 11 11 11 10 11 11 10 10 10 12 15 16 19 22 25 26 28 29 30 32 34 35 35 36 36 36 35 32 29 25 22 21 21 22 22 22 22 23 23 23 22 22 22 21 20 19 18 18 18
1 2 2 2 1 4 4 4 4 3 2 2 3 4 5 7 8 5 1 2 3 5 6 5 8 12 10 9 10 10 8 9 11 10 9 9 11 12 12 11 10 9 9 10 10 9 9 10 13 17 20 21 22 24 26 28 30 32 34 36 37 36 35 34 31 28 25 23 21 21 22 22 22 22 23 23 23 22 22 21 20 20 19 19 19 18
2 1 2 5 6 6 6 7 4 1 3 6 7 5 5 7 7 5 4 3 5 2 4 8 12 15 19 18 16 15 13 12 13 12 11 11 11 12 11 10 9 8 8 8 8 7 8 8 10 14 17 18 19 21 25 28 30 32 33 35 36 35 34 32 30 27 25 22 21 21 21 22 22 22 22 22 22 22 22 21 20 20 19 19 19 18
3 3 4 4 7 8 7 9 8 4 6 10 11 8 6 7 7 7 6 9 4 2 7 14 12 11 16 19 17 17 16 15 15 15 15 13 12 11 10 9 9 8 8 8 8 7 8 8 8 11 15 18 19 20 23 27 30 33 34 34 35 34 33 31 29 27 24 21 20 20 21 21 21 21 21 21 21 21 21 21 20 19 19 19 19 19
4 3 4 2 6 10 8 9 10 7 7 9 10 11 9 7 10 12 15 14 7 5 14 18 13 13 16 19 19 18 17 16 16 15 13 12 12 12 10 10 10 9 9 8 8 7 8 8 7 10 15 18 19 21 23 24 27 29 30 31 32 33 32 30 28 26 23 21 20 20 20 20 19 20 20 19 20 20 20 20 19 19 19 19 19 19
3 3 5 3 5 11 9 10 10 8 6 7 10 13 11 9 13 14 15 15 11 13 17 19 19 19 18 18 19 16 14 12 11 11 12 14 15 13 11 10 10 10 10 9 8 8 8 7 8 12 16 18 20 22 23 23 23 24 26 28 30 31 31 29 27 24 22 20 19 19 19 18 18 19 19 19 19 20 20 20 19 19 19 19 20 20
1 3 3 2 2 9 9 7 7 5 5 8 13 15 12 10 11 11 12 11 10 12 16 16 16 17 15 14 14 12 10 9 10 13 15 15 15 13 12 11 12 13 12 9 8 8 8 9 11 15 18 21 24 25 25 24 22 22 24 27 29 30 29 26 24 21 19 17 17 17 17 17 18 18 18 18 19 20 20 20 19 19 20 20 21 21
1 2 2 4 3 7 5 4 7 6 5 10 15 17 14 10 7 7 8 7 8 10 13 11 10 11 11 10 11 12 12 12 13 14 14 14 14 14 14 14 15 13 11 9 9 10 12 12 14 18 22 26 28 28 27 26 21 19 22 25 26 26 25 22 19 16 15 15 15 15 16 17 17 18 18 18 19 20 20 20 20 20 20 21 21 21
3 1 1 2 2 6 5 4 6 7 7 9 10 9 8 6 6 6 6 7 9 8 7 7 8 10 11 11 13 17 16 14 13 12 12 14 14 14 14 14 13 11 9 9 11 12 13 15 17 21 25 27 28 28 27 23 18 17 19 20 20 20 19 16 13 12 13 13 14 14 15 16 17 17 18 18 19 20 20 20 20 21 21 22 22 22
3 4 2 1 2 6 7 5 6 6 6 7 5 6 6 7 10 9 8 9 8 6 5 7 9 12 13 13 14 16 16 13 11 11 11 12 11 11 12 10 9 9 10 11 12 13 14 18 22 25 27 28 29 29 26 20 16 15 15 17 16 15 13 11 10 11 11 12 12 13 14 15 16 16 17 17 18 19 19 20 21 21 22 22 22 22
4 4 2 2 2 4 5 5 6 7 6 5 7 6 6 7 7 6 6 8 9 10 10 11 13 14 14 13 12 13 14 12 11 10 10 10 8 8 9 9 9 11 12 13 13 15 18 23 26 28 29 30 30 29 24 18 14 12 12 13 11 9 8 8 8 9 10 10 11 11 13 14 15 15 16 17 18 19 20 20 21 22 22 22 21 22
6 4 1 1 2 3 3 2 3 10 8 7 11 8 2 1 1 2 5 7 10 11 10 11 14 15 14 13 10 9 11 12 10 7 5 6 7 7 8 10 12 13 13 15 17 20 24 28 28 29 30 31 30 27 20 13 9 7 6 5 4 4 6 7 8 9 10 9 9 11 13 14 14 15 16 17 18 19 20 21 21 22 22 22 22 22
6 4 1 1 2 2 2 3 4 10 12 8 6 2 1 1 1 1 4 6 8 10 9 10 13 14 12 11 9 8 9 12 11 5 5 9 10 10 12 13 14 16 18 21 24 26 29 31 31 31 31 31 28 22 13 7 3 2 2 3 5 6 7 7 9 9 9 8 10 12 13 13 14 15 16 17 18 19 20 21 21 22 22 22 22 23
5 4 3 2 2 1 1 4 5 7 8 6 4 1 1 2 4 5 1 5 7 9 9 9 11 12 10 9 9 9 9 12 12 7 8 12 13 13 15 18 19 21 22 23 25 28 31 31 31 30 29 28 24 18 12 9 8 7 7 7 8 8 8 9 9 9 9 10 11 12 13 14 14 16 17 18 19 20 21 21 22 22 22 22 22 23
3 2 4 2 3 1 0 3 4 5 7 5 3 3 3 2 5 5 3 6 6 7 7 6 8 9 8 8 9 9 9 10 11 9 10 14 15 15 16 17 20 22 22 23 25 28 29 30 29 28 27 26 22 17 13 12 12 11 11 10 9 8 8 9 10 10 11 12 12 13 13 14 15 16 17 18 19 20 21 21 22 23 22 22 22 23
1 1 2 3 5 3 2 3 4 5 7 7 4 3 4 2 4 4 7 9 6 5 4 4 7 8 7 8 9 8 7 7 9 10 13 15 17 18 18 18 19 20 21 23 27 28 29 28 26 26 26 25 23 20 17 16 16 14 12 9 8 9 10 10 11 11 11 12 12 13 14 14 16 17 17 18 19 20 21 21 22 22 22 23 23 23
1 2 2 4 5 4 4 4 5 5 7 7 4 3 5 2 3 4 7 8 9 11 8 6 7 8 8 8 8 6 5 6 8 11 13 15 16 17 20 22 22 22 23 25 27 27 26 25 25 25 26 26 26 25 22 18 16 13 10 9 9 10 10 10 11 11 12 13 13 14 15 16 17 17 18 19 19 20 20 21 21 22 22 23 24 24
2 1 2 3 3 4 4 3 5 6 5 2 3 3 3 1 4 6 7 6 9 10 8 7 7 7 8 8 6 5 7 8 9 11 13 14 13 14 19 23 22 23 25 25 24 24 24 25 25 26 27 28 29 26 21 16 13 11 10 11 11 11 11 11 12 12 13 13 14 15 17 17 17 18 18 18 18 18 19 20 21 22 23 24 25 25
4 3 2 3 4 3 2 2 3 6 4 4 4 1 1 1 6 8 7 7 8 6 5 6 6 6 7 7 6 7 8 9 11 12 13 12 12 14 19 20 21 23 24 22 22 24 26 25 24 24 26 26 25 21 18 16 15 14 14 14 13 12 12 12 13 12 13 14 15 16 17 17 18 18 18 18 18 18 20 21 22 23 24 25 26 26
4 5 3 3 3 2 2 3 4 4 4 5 3 2 4 5 6 6 6 7 6 5 4 5 4 5 6 6 7 8 9 10 11 12 12 12 12 14 17 19 23 25 22 20 22 25 26 24 21 23 24 21 20 19 19 19 19 18 17 16 14 14 14 13 13 13 14 15 16 17 18 18 18 18 18 19 19 20 21 23 23 24 26 26 25 24
6 6 4 4 4 4 5 8 7 5 5 3 4 5 8 8 5 3 3 5 4 3 3 4 4 5 5 6 8 8 8 10 11 11 11 11 11 13 16 20 24 22 19 20 23 26 25 22 20 21 20 17 17 19 20 21 21 19 17 16 16 15 15 14 14 14 15 17 18 18 19 19 19 20 20 20 20 20 22 23 24 25 26 26 24 23
6 4 3 2 3 4 7 9 7 6 7 5 5 6 7 5 3 4 3 3 3 3 3 3 3 4 5 6 7 6 7 10 11 10 10 10 11 13 18 22 21 19 20 23 25 26 24 22 20 20 18 16 17 19 20 21 20 18 17 18 18 17 16 16 16 17 18 18 19 19 19 19 20 21 21 21 21 21 23 23 24 25 25 25 24 23
3 1 2 3 3 4 5 5 3 4 7 8 8 7 4 2 3 4 4 3 2 2 3 4 3 4 4 5 5 5 7 9 9 9 9 9 10 14 18 18 17 18 21 23 24 24 23 21 19 19 17 17 18 19 21 21 20 18 18 19 19 18 18 18 17 18 19 19 19 19 19 19 20 21 22 22 22 22 23 23 24 24 25 25 24 23
1 0 1 4 5 4 7 9 6 6 9 10 7 4 2 4 3 3 4 2 2 3 4 4 4 3 3 4 4 5 7 8 8 9 9 8 10 14 15 16 17 20 23 23 23 23 21 19 18 18 18 19 20 21 22 21 20 19 19 19 19 18 18 18 18 18 19 19 19 20 20 20 21 21 22 22 22 22 23 23 23 24 25 26 25 24
2 1 2 3 3 5 8 9 7 6 8 8 5 3 3 2 1 2 2 2 4 5 3 4 4 3 5 5 5 5 7 7 8 9 9 9 10 12 14 17 19 20 21 21 21 21 19 18 18 19 20 20 21 22 22 22 21 21 20 19 19 18 18 18 18 19 20 20 20 20 21 21 21 21 22 23 23 23 23 24 23 24 27 27 26 25
2 4 3 1 3 5 6 6 4 5 7 6 5 4 2 1 1 2 3 3 4 4 2 3 3 4 6 7 7 7 6 6 9 11 9 9 11 12 16 19 20 19 19 19 19 19 19 18 19 20 21 21 22 22 22 22 22 21 20 20 19 18 18 19 19 20 20 20 21 21 21 21 21 21 21 22 23 23 24 25 24 23 25 27 26 25
4 6 5 3 5 7 8 6 4 4 6 7 6 4 1 2 2 4 3 3 4 3 3 3 4 4 5 7 10 10 7 8 11 12 10 10 12 15 18 20 19 17 18 18 18 19 19 19 20 21 21 21 22 22 22 23 23 22 21 20 19 18 18 19 19 21 22 21 22 22 22 21 22 22 21 22 22 23 24 26 27 26 25 25 25 25
Wind_Direction
40 62 40 16 347 341 354 336 290 251 241 107 71 73 79 39 329 313 49 105 103 86 57 89 100 97 85 79 93 104 104 109 119 125 132 145 145 149 155 158 158 161 162 148 147 156 158 161 161 150 143 138 134 130 123 120 119 116 110 86 61 55 45 40 36 32 28 21 18 18 15 10 7 341 290 287 294 300 303 302 304 311 319 325 329 328
46 62 12 333 329 346 359 339 356 66 72 76 81 60 47 38 321 301 36 33 77 96 106 116 103 93 99 94 84 101 106 120 139 144 153 160 163 169 167 171 176 178 171 161 166 175 178 183 187 192 186 170 163 159 154 141 131 132 129 109 68 44 33 31 30 29 25 19 15 10 7 360 354 346 309 286 289 293 294 296 299 310 318 324 334 336
47 43 337 325 345 46 27 11 37 72 79 65 68 75 37 1 318 307 330 342 7 101 151 171 112 109 152 112 102 105 104 125 149 154 168 169 169 179 178 179 182 182 184 182 184 188 194 200 200 205 211 210 201 187 186 183 166 161 156 139 84 22 16 18 19 19 16 13 8 1 360 353 345 343 322 293 281 279 280 287 296 308 320 327 337 336
68 353 319 328 32 50 31 25 39 54 68 63 63 73 357 336 32 316 315 329 348 88 143 156 111 121 194 95 129 154 133 131 131 146 167 173 177 187 188 185 183 185 191 193 195 197 201 208 209 210 214 220 223 219 212 209 207 200 194 208 261 329 351 359 2 5 5 2 358 353 352 348 339 332 325 300 271 265 270 282 294 305 319 327 332 328
65 324 320 12 48 47 39 31 40 47 35 31 73 82 348 319 339 208 279 327 11 62 130 131 77 301 204 197 214 202 174 169 160 155 172 189 187 187 187 190 191 189 190 193 200 202 203 210 215 215 215 220 227 232 231 225 225 228 232 249 274 291 318 336 348 354 355 355 353 347 344 343 332 322 320 296 266 263 272 286 293 297 308 314 316 317
34 332 348 39 35 36 51 39 44 63 20 338 38 75 352 307 290 256 314 0 55 50 192 129 52 296 209 204 216 198 196 201 189 186 197 203 196 188 189 195 199 196 196 198 200 204 207 214 219 219 218 218 226 235 238 235 232 236 243 251 264 279 299 315 331 343 346 349 348 341 337 335 322 309 306 286 270 274 282 288 284 283 294 299 295 300
15 346 20 48 33 34 44 34 34 68 55 346 301 338 341 323 301 310 28 54 91 224 246 105 102 262 246 232 220 192 201 216 210 209 210 207 204 201 202 202 201 202 203 204 206 208 212 216 219 220 221 220 226 235 240 239 236 237 244 251 257 269 286 294 312 329 333 339 341 334 327 322 307 293 290 281 274 281 283 279 277 279 287 293 288 283
3 359 17 34 33 36 36 6 334 41 69 291 291 327 328 321 295 285 84 104 194 224 332 24 90 228 276 252 213 185 200 227 227 226 223 213 210 211 210 208 206 207 205 205 210 213 216 220 221 223 226 226 229 235 239 239 239 239 242 250 255 260 273 279 294 312 319 327 330 326 318 308 295 285 283 279 274 275 274 273 276 276 283 292 288 279
336 19 18 32 31 27 11 308 291 12 74 260 282 312 299 282 249 216 112 132 242 121 316 330 38 76 282 276 202 175 207 244 238 227 223 217 215 217 216 213 210 210 207 206 211 215 219 223 226 228 230 232 233 235 240 241 241 242 242 247 249 251 263 268 278 295 303 313 319 318 309 297 287 281 279 275 268 267 268 273 276 275 283 291 282 277
209 98 82 78 41 356 298 291 282 92 26 281 295 317 304 17 130 134 108 106 17 83 241 295 16 63 281 272 213 185 226 244 241 230 222 217 216 216 218 219 215 213 211 211 214 218 222 227 231 232 231 234 236 238 242 243 241 239 239 242 244 247 255 258 267 279 286 299 308 307 301 290 282 280 279 274 268 268 270 271 272 273 277 280 278 280
247 321 38 92 35 290 261 297 326 65 341 322 339 356 13 30 43 62 82 88 54 21 244 248 172 106 296 271 208 201 219 215 218 231 229 219 218 219 218 219 218 216 216 216 219 223 227 232 234 232 230 234 238 242 244 243 241 239 237 239 242 246 249 252 259 266 274 289 297 298 296 286 279 278 277 273 269 269 269 268 268 268 266 271 281 284
353 0 356 331 341 357 14 353 356 1 8 17 15 22 27 0 10 23 5 43 67 278 246 233 119 114 226 265 225 223 235 211 196 215 223 216 218 221 218 218 218 217 220 220 223 229 230 232 230 227 230 235 238 242 243 242 241 239 236 236 240 242 244 248 254 258 267 279 285 288 289 283 278 275 269 267 267 267 268 270 266 261 262 271 279 275
357 342 326 317 342 32 51 23 346 348 13 26 20 41 53 6 9 13 340 9 123 251 252 291 31 96 234 255 235 227 236 226 212 215 220 215 217 223 223 223 222 219 222 223 225 231 231 230 228 227 231 235 237 240 240 241 242 239 235 234 237 240 241 244 248 253 261 270 274 278 281 281 278 272 265 263 265 265 267 270 265 258 261 268 270 268
335 307 341 360 343 21 69 73 1 331 357 3 0 61 87 78 39 342 301 334 288 268 286 332 20 265 275 277 233 225 233 228 222 225 227 224 223 229 231 229 232 228 225 226 227 229 230 231 232 232 233 235 237 239 240 240 241 239 235 234 235 238 239 239 244 252 258 263 268 274 276 278 276 271 266 262 261 261 263 268 266 259 257 262 268 270
59 322 334 24 321 355 51 112 168 215 321 313 281 104 113 134 121 195 239 255 264 280 300 334 44 213 256 276 235 238 262 249 234 239 243 246 242 242 249 246 241 238 233 231 232 233 235 235 235 235 235 236 237 239 240 240 240 238 235 234 233 234 235 237 242 249 254 258 266 270 271 272 272 271 268 262 259 258 259 264 266 259 257 264 272 272
109 250 268 254 222 90 76 247 161 120 318 284 109 81 53 177 141 161 212 211 235 301 298 301 230 215 224 267 280 312 313 288 260 257 254 253 252 252 259 254 244 243 241 238 237 238 239 239 237 236 236 237 237 238 239 239 238 236 235 235 233 234 236 238 241 245 249 256 263 265 266 267 267 267 266 261 258 260 259 258 264 266 265 269 273 270
90 265 269 308 337 221 186 234 71 115 173 322 40 64 247 187 127 111 277 263 34 322 278 262 261 284 319 307 326 359 312 282 267 259 250 248 252 252 253 252 246 245 244 241 239 240 242 241 238 237 236 236 235 235 238 239 237 236 235 234 232 234 235 237 240 242 246 253 258 262 264 264 263 262 262 260 260 263 262 256 260 267 268 268 269 266
129 285 275 200 292 277 192 116 8 101 131 98 60 233 242 54 85 98 305 332 18 288 272 277 261 282 326 303 322 344 291 273 260 249 249 253 252 247 248 248 245 244 245 246 246 245 246 244 241 239 238 237 236 236 237 239 239 237 235 233 232 231 231 234 238 239 243 250 255 261 263 261 260 260 259 260 261 261 260 255 256 260 263 265 264 264
125 327 291 217 191 292 20 60 351 321 70 121 177 192 93 64 338 9 346 325 347 290 282 297 283 271 240 239 283 290 260 264 266 255 250 250 245 242 247 249 248 248 249 249 250 248 246 245 243 242 240 239 238 237 238 239 238 235 233 232 230 229 231 234 236 237 240 245 252 259 262 260 259 258 257 257 259 257 255 255 256 257 259 260 260 263
47 105 292 289 183 331 14 57 260 290 332 36 39 17 60 137 181 202 199 186 217 276 285 307 316 283 234 215 236 258 252 255 267 266 253 246 244 242 245 248 248 246 246 246 247 246 246 246 246 244 242 240 239 238 238 237 233 231 231 229 227 227 229 231 233 233 235 241 249 255 258 258 257 255 254 254 256 255 255 257 258 256 255 257 261 264
16 110 248 302 344 24 336 259 203 191 205 48 48 5 334 347 111 228 241 176 156 200 254 293 302 268 249 209 221 254 260 258 260 260 255 250 248 247 245 246 247 245 245 246 246 246 247 248 248 247 245 243 242 240 238 234 231 230 228 225 224 223 225 227 228 229 233 237 244 250 253 256 255 252 251 252 254 256 257 259 257 254 255 260 263 262
24 120 218 294 318 273 232 258 216 175 164 147 154 182 191 160 85 32 290 288 121 166 208 234 279 274 265 178 208 246 254 258 257 249 252 256 252 251 249 245 245 246 248 248 247 247 248 248 249 248 246 244 242 241 238 234 230 227 224 222 222 221 222 225 225 227 231 235 239 245 250 253 252 250 250 252 255 257 259 259 256 255 259 262 260 257
129 108 150 267 261 235 241 271 140 135 125 123 159 170 149 137 124 142 234 269 292 265 239 190 256 272 271 166 206 241 244 253 253 238 248 259 256 255 256 254 252 251 253 253 251 249 247 248 248 248 248 247 245 242 239 233 227 224 223 222 220 220 222 224 225 227 229 232 236 242 247 248 248 247 249 251 253 256 257 258 257 258 261 260 257 256
104 88 46 288 291 295 286 307 357 48 72 88 238 179 155 161 148 159 182 184 204 260 263 276 261 267 281 284 239 257 261 266 261 243 248 260 266 265 262 262 260 256 256 254 252 251 249 249 249 249 250 249 248 245 238 231 227 225 223 221 219 221 223 223 223 225 226 229 234 239 241 243 244 246 247 249 251 254 257 258 258 258 258 256 255 259
275 144 71 351 333 335 339 342 341 346 29 214 241 206 177 146 112 123 137 98 223 236 202 199 263 262 274 329 318 304 300 287 274 260 255 261 270 274 270 267 261 257 258 256 253 253 250 250 250 248 249 249 248 244 236 229 226 224 222 221 220 221 222 220 220 222 223 226 230 233 236 240 242 244 245 247 250 254 257 257 257 255 253 253 257 262
178 189 130 107 280 295 303 293 279 282 285 262 244 210 189 158 142 154 136 104 242 234 174 181 257 272 286 303 302 297 291 285 282 279 273 267 266 270 272 270 263 255 253 252 251 253 252 252 253 252 253 252 246 240 235 230 227 225 224 223 222 220 219 217 218 220 220 222 225 230 234 238 240 242 243 246 251 255 256 255 254 251 251 255 259 262
90 237 196 175 197 221 237 248 250 280 294 281 272 246 205 185 174 148 116 183 212 203 196 221 244 272 289 293 294 297 295 294 295 294 290 283 277 275 272 266 262 257 253 255 260 267 269 266 265 264 265 264 259 249 238 232 229 226 225 223 221 219 216 214 215 216 217 219 223 228 233 237 240 242 244 247 251 254 255 253 251 250 252 256 258 260
78 303 252 202 225 238 241 260 280 301 273 268 271 262 225 194 177 164 199 225 189 98 269 256 244 256 277 284 288 294 297 299 301 299 297 295 292 290 284 277 274 273 273 277 280 281 281 278 275 275 274 274 272 261 246 237 233 229 226 222 218 214 212 211 211 212 214 217 221 227 233 237 240 241 244 248 251 253 252 249 248 249 253 256 257 259
110 261 244 193 258 265 258 263 271 271 259 256 260 260 245 202 182 195 224 231 199 205 259 269 272 268 273 281 286 290 294 297 297 296 297 299 300 300 297 293 290 289 288 287 285 285 284 281 278 279 281 280 277 268 257 247 239 231 225 219 213 209 208 208 208 208 210 213 220 228 234 237 239 241 243 246 248 248 247 246 248 252 255 256 256 258
122 245 236 190 273 281 273 265 263 254 252 260 259 257 247 216 202 211 232 239 226 232 251 267 278 277 275 279 282 286 289 289 291 298 305 308 309 309 304 298 298 298 297 292 293 298 295 291 297 300 300 298 292 283 274 263 248 232 221 213 207 205 205 205 205 205 207 213 223 231 235 237 239 239 240 242 243 243 245 247 251 255 255 255 257 261
145 253 244 134 304 288 275 273 276 259 255 274 275 270 260 243 230 227 239 248 243 247 256 263 273 276 276 278 281 284 288 294 304 309 311 311 313 313 309 307 307 306 307 306 308 315 316 315 318 317 312 307 302 295 284 271 254 232 218 209 204 204 204 203 202 203 209 218 227 233 236 237 237 237 238 239 241 244 248 252 255 256 257 258 261 264
181 261 334 57 348 281 266 302 312 312 300 283 278 274 264 248 234 227 230 229 221 241 262 272 275 276 280 289 296 298 302 309 311 310 311 312 313 313 310 310 312 314 319 324 326 329 328 326 320 313 308 304 303 301 291 276 256 229 215 207 202 200 199 198 200 205 215 225 231 234 236 237 237 238 238 241 246 250 253 255 256 257 258 260 263 267
151 161 8 45 304 275 284 322 323 334 326 290 264 247 233 228 231 239 249 238 220 225 254 266 264 274 290 304 305 303 305 309 310 312 314 314 313 312 311 314 320 327 334 334 333 330 324 317 312 310 311 313 314 313 305 288 265 237 218 205 198 193 190 192 201 213 223 231 236 237 237 238 239 240 242 247 252 254 255 255 255 256 259 263 267 271
138 128 166 196 236 271 289 323 332 320 300 276 244 187 194 249 253 242 247 251 238 222 230 255 273 286 294 296 294 295 299 302 307 310 310 311 310 311 316 325 335 336 335 331 328 323 318 319 323 327 330 331 328 324 316 299 273 246 218 199 190 185 185 195 208 221 233 238 239 239 240 242 244 245 248 252 253 254 253 254 256 259 264 267 269 271
144 135 200 216 196 268 302 360 340 289 242 248 284 269 237 247 241 230 245 253 257 262 263 272 281 279 279 281 280 285 290 293 301 306 306 311 318 324 332 340 339 334 333 332 329 331 337 341 343 342 339 335 329 323 313 293 265 233 202 187 182 183 196 215 225 238 247 244 240 244 247 249 250 251 253 254 253 253 254 256 260 264 267 268 268 271
149 157 196 224 209 276 322 67 287 285 283 290 299 300 277 195 81 343 292 250 244 260 265 268 271 269 274 278 277 280 287 294 303 309 325 346 355 356 346 340 339 340 341 343 346 350 352 351 345 339 333 328 324 318 307 286 252 211 181 179 198 223 238 251 257 255 250 245 249 256 255 255 255 255 256 256 255 254 255 259 263 267 268 268 269 272
137 150 157 257 220 231 263 220 254 303 315 305 295 328 65 158 120 24 283 243 232 245 250 256 265 271 274 276 284 296 300 308 314 333 40 22 5 358 349 345 348 350 351 356 358 356 351 346 341 337 334 331 327 323 317 312 309 316 316 296 289 286 281 278 271 260 257 263 266 264 261 261 261 260 259 259 257 257 259 263 266 267 268 269 271 274
142 163 162 202 231 149 296 289 302 316 306 277 261 280 209 189 145 131 241 272 252 247 244 239 253 269 279 291 311 324 329 326 321 331 15 9 359 357 352 350 354 357 0 2 358 350 346 343 341 340 339 336 333 331 330 331 331 329 320 308 301 298 290 281 277 275 280 279 272 269 269 270 269 266 264 262 260 261 264 266 268 270 271 272 274 276
125 114 117 146 274 304 247 270 271 274 273 267 261 249 223 179 122 103 332 295 263 245 238 237 263 285 308 328 335 346 352 334 318 327 357 358 355 355 351 352 359 2 1 356 350 345 343 341 339 339 340 338 333 328 324 322 320 316 309 303 301 296 288 285 286 287 285 280 276 278 279 277 274 271 267 266 265 267 269 270 271 273 274 274 275 277
84 10 108 183 248 239 201 246 251 243 261 281 283 223 204 171 92 48 321 300 300 303 288 288 309 323 348 351 346 357 359 331 315 332 351 351 349 352 355 357 357 355 350 346 344 342 340 340 341 343 344 342 336 328 322 317 312 308 305 307 308 303 298 297 295 290 286 283 283 285 284 282 278 274 271 271 272 273 274 274 274 274 274 275 276 277
188 239 194 200 236 225 203 244 274 259 257 277 280 202 189 169 56 351 297 295 324 337 347 4 353 350 359 356 351 351 344 333 328 335 345 347 346 352 356 351 345 343 342 340 341 343 345 348 350 349 347 345 339 332 324 316 313 315 322 325 317 310 309 307 302 296 290 288 290 291 289 285 279 277 276 277 278 278 276 275 275 274 274 275 277 279
209 209 200 184 214 225 199 217 282 283 258 200 150 177 196 333 328 296 287 314 338 343 359 15 4 354 356 357 354 339 331 338 341 340 345 348 348 350 347 341 338 338 338 339 346 354 356 353 350 348 346 343 340 335 330 328 332 338 337 329 321 319 319 314 308 302 297 295 296 294 289 284 281 281 281 281 279 276 274 274 274 275 275 276 278 281
189 189 235 200 191 212 207 210 289 289 260 150 127 146 182 226 292 298 313 336 346 360 11 6 3 5 360 352 347 339 337 342 347 345 344 345 346 342 337 338 340 337 337 346 358 2 357 351 349 349 347 346 349 351 353 355 356 351 343 335 329 325 320 315 311 308 303 301 298 293 289 285 283 282 281 280 279 276 276 277 276 275 276 277 279 281
190 184 221 234 207 187 214 219 223 241 220 174 169 262 240 236 280 320 336 332 344 16 14 357 5 16 8 354 345 343 344 347 347 343 340 340 341 337 337 343 342 337 344 1 4 358 355 351 350 350 350 354 0 2 2 2 358 351 345 339 332 327 322 317 314 310 306 302 298 295 291 287 284 283 282 282 282 280 278 277 277 277 278 279 279 279
215 193 197 235 226 207 238 250 251 272 283 220 199 243 263 272 302 1 348 326 348 17 9 6 6 5 8 360 348 346 348 345 340 338 338 338 337 340 344 344 342 345 359 7 358 353 353 352 350 351 353 358 2 359 359 359 354 347 343 339 335 331 325 319 315 310 307 304 301 297 294 290 288 287 287 287 286 281 278 278 278 278 279 280 279 277
237 196 160 227 255 264 274 271 267 281 291 279 250 257 270 288 334 11 11 11 25 18 28 54 24 360 7 359 347 348 347 338 334 336 340 339 339 346 346 342 346 0 6 358 352 353 354 352 351 351 353 356 358 357 356 353 348 344 342 339 337 334 327 320 316 312 308 305 301 299 296 292 291 291 291 290 288 283 280 280 278 278 279 279 277 276
287 169 158 227 271 299 288 271 244 256 278 286 287 285 292 354 21 32 46 48 31 29 61 69 31 8 9 349 340 345 339 335 336 340 344 346 344 345 345 346 356 4 359 352 353 355 355 353 353 353 354 355 355 354 352 349 346 343 340 337 336 332 325 319 314 309 306 304 301 299 297 294 293 293 292 291 289 286 283 281 279 276 275 275 274 274
281 16 223 225 231 246 259 266 272 269 273 279 278 279 333 10 23 71 96 91 77 87 75 37 15 11 354 337 344 348 339 342 352 349 347 349 344 342 348 355 358 356 353 354 356 356 357 358 358 357 355 352 350 348 347 347 346 344 340 337 335 331 324 318 313 308 305 303 300 299 297 294 293 293 292 291 289 286 284 282 280 276 274 275 275 273
139 221 234 219 245 267 271 282 297 295 280 274 274 303 349 7 49 85 92 91 100 106 78 21 10 353 340 345 1 0 351 356 2 356 351 346 340 345 356 357 353 352 354 354 355 357 360 1 360 357 352 347 345 345 345 345 344 342 340 337 334 330 323 317 312 308 304 302 300 299 297 296 294 293 292 290 289 287 285 284 282 279 279 281 281 278
144 235 233 213 278 276 268 267 290 311 295 280 293 329 353 143 108 38 44 86 104 109 80 25 4 348 352 6 19 17 6 1 358 355 351 343 342 353 0 353 348 349 352 353 354 357 358 356 354 351 347 345 346 346 345 345 344 343 342 339 336 331 323 317 312 307 304 303 301 300 299 298 296 295 293 291 289 289 289 289 287 280 278 282 286 287
193 215 195 180 228 254 269 269 264 279 282 286 313 343 103 146 30 18 53 109 118 111 80 30 3 360 11 22 30 32 20 358 355 353 346 344 351 359 357 349 344 345 348 352 356 355 352 349 348 347 346 345 346 347 346 344 344 344 344 341 338 332 324 319 313 307 304 304 303 303 302 299 297 296 294 291 290 289 289 291 291 287 281 280 283 286